This demonstration page uses our WeatherBlox Daily Observations layout. Learn more.

Hourly Observations for November 21, 2016

Temp ( °F °C ) Dew Point ( °F °C ) Humidity (%) Winds ( mph kmh ) Pressure ( in mb ) Visibility ( mi km ) Precip ( " mm )
12:54 am 00:54 Clear 27 -2.8 21 -6.1 78 78 NNW 5 7 30.13 1020 10 16.0934 0 0
1:54 am 01:54 Clear 26 -3.3 21 -6.1 81 81 Calm 30.11 1020 10 16.0934 0 0
2:54 am 02:54 Clear 29 -1.7 22 -5.6 75 75 Calm 30.14 1021 10 16.0934 0 0
3:54 am 03:54 Clear 23 -5 20 -6.7 88 88 NE 6 9 30.14 1021 10 16.0934 0 0
4:54 am 04:54 Clear 25 -3.9 21 -6.1 85 85 Calm 30.14 1021 10 16.0934 0 0
5:54 am 05:54 Clear 26 -3.3 21 -6.1 81 81 ENE 3 6 30.13 1020 10 16.0934 0 0
6:54 am 06:54 Clear 24 -4.4 20 -6.7 84 84 NE 5 7 30.13 1020 10 16.0934 0 0
7:54 am 07:54 Sunny 27 -2.8 22 -5.6 81 81 ENE 3 6 30.15 1021 10 16.0934 0 0
8:54 am 08:54 Sunny 34 1.1 24 -4.4 67 67 SE 3 6 30.15 1021 10 16.0934 0 0
9:54 am 09:54 Sunny 36 2.2 24 -4.4 62 62 E 5 7 30.15 1021 10 16.0934 0 0
10:54 am 10:54 Sunny 38 3.3 24 -4.4 57 57 E 8 13 30.13 1020 10 16.0934 0 0
11:54 am 11:54 Sunny 42 5.6 26 -3.3 53 53 SE 6 9 30.11 1020 10 16.0934 0 0
12:54 pm 12:54 Sunny 44 6.7 27 -2.8 51 51 ESE 7 11 30.06 1018 10 16.0934 0 0
1:54 pm 13:54 Mostly Cloudy 45 7.2 27 -2.8 49 49 ESE 8 13 30.04 1017 10 16.0934 0 0
2:54 pm 14:54 Partly Cloudy 47 8.3 28 -2.2 48 48 SE 7 11 30.03 1017 10 16.0934 0 0
3:54 pm 15:54 Sunny 47 8.3 28 -2.2 48 48 ESE 12 19 30.02 1017 10 16.0934 0 0
4:54 pm 16:54 Sunny 47 8.3 28 -2.2 48 48 ESE 12 19 30 1016 10 16.0934 0 0
5:54 pm 17:54 Clear 46 7.8 29 -1.7 51 51 ESE 9 15 29.99 1016 10 16.0934 0 0
6:54 pm 18:54 Clear 45 7.2 29 -1.7 54 54 ESE 9 15 30.01 1016 10 16.0934 0 0
7:54 pm 19:54 Clear 45 7.2 29 -1.7 54 54 SE 13 20 30.01 1016 10 16.0934 0 0
8:54 pm 20:54 Mostly Clear 45 7.2 29 -1.7 54 54 SE 13 20 29.99 1016 10 16.0934 0 0
9:54 pm 21:54 Clear 45 7.2 29 -1.7 54 54 SE 12 19 29.96 1015 10 16.0934 0 0
10:54 pm 22:54 Mostly Clear 45 7.2 30 -1.1 56 56 ESE 12 19 29.96 1014 10 16.0934 0 0
11:54 pm 23:54 Mostly Clear 45 7.2 30 -1.1 56 56 ESE 14 22 29.93 1014 10 16.0934 0 0

Powered by AerisWeather